527  
ASUS43 KBIS 222010  
RWRND  
 
NORTH DAKOTA REGIONAL WEATHER ROUNDUP  
NATIONAL WEATHER SERVICE BISMARCK ND  
300 PM CDT MON JUL 22 2019  
 
NOTE: "FAIR" INDICATES FEW OR NO CLOUDS BELOW 12,000 FEET WITH NO  
SIGNIFICANT WEATHER AND/OR S TO VISIBILITY
.  
 
 
NDZ001>003-009>011-017-222100-  
NORTHWEST NORTH DAKOTA  
 
CITY SKY/WX TMP DP RH WIND PRES REMARKS
 
WILLISTON SUNNY 82 51 34 SE8 30.27F  
MINOT MOSUNNY 82 52 35 VRB5 30.28F  
MINOT AFB SUNNY 79 54 41 SW3 30.26  

 
 
NDZ018>021-031>035-040>046-222100-  
SOUTHWEST NORTH DAKOTA  
 
CITY SKY/WX TMP DP RH WIND PRES REMARKS
 
BISMARCK SUNNY 78 52 40 SE8 30.31S  
DICKINSON SUNNY 78 52 40 S8 30.29F  
GARRISON N/A 77 52 41 S5 30.29F  
HETTINGER ARPT MOSUNNY 76 54 46 SE9 30.31F  

 
 
NDZ004>008-012>016-024-026-027-054-222100-  
NORTHEAST NORTH DAKOTA  
 
CITY SKY/WX TMP DP RH WIND PRES REMARKS
 
GRAND FORKS MOSUNNY 78 54 43 NW9 30.24F  
GRND FRKS AFB MOSUNNY 78 55 45 N9 30.26F  
DEVILS LAKE SUNNY 76 54 46 NW8 30.29F  

 
 
NDZ022-023-025-028>030-036>039-047>053-222100-  
SOUTHEAST NORTH DAKOTA  
 
CITY SKY/WX TMP DP RH WIND PRES REMARKS
 
FARGO SUNNY 76 51 41 W6 30.27F  
JAMESTOWN SUNNY 74 58 57 NW6 30.30F  

 
 
 
 
CLICK HERE TO GO TO PREVIOUS BULLETINS.

The Nexlab ND Page Main Text Page